Laredo, TX

8:05 PM CDT on May 23, 2017 (GMT -0500)
Laredo International

Weather History for KLRD - November, 2011

Change the Weather History Date:

Sunday, November 27, 2011

  Actual Average Record
Temperature  
Mean Temperature 55 °F 61 °F  
Max Temperature 62 °F 72 °F 99 °F (2005)
Min Temperature 47 °F 51 °F 28 °F (1993)
Degree Days  
Heating Degree Days 10 6  
Month to date heating degree days 38 85  
Since 1 July heating degree days 47 97  
Cooling Degree Days 0 2  
Month to date cooling degree days 189 119  
Year to date cooling degree days 5654 4248  
Growing Degree Days 4 (Base 50)    
Moisture  
Dew Point 14 °F    
Average Humidity 21    
Maximum Humidity 32    
Minimum Humidity 10    
Precipitation  
Precipitation 0.00 in 0.03 in 1.49 in (1963)
Month to date precipitation 0.20 1.09  
Year to date precipitation 4.41 19.22  
Sea Level Pressure  
Sea Level Pressure 30.39 in    
Wind  
Wind Speed 18 mph (NW)    
Max Wind Speed 32 mph    
Max Gust Speed 40 mph    
Visibility 9 miles    
Events      
T = Trace of Precipitation, MM = Missing Value Source: NWS Daily Summary

Daily Weather History Graph

Daily Weather History Graph

Search for Another Location

Airport or City:

Trip Planner

Search our weather history database for the weather conditions in past years. The results will help you decide how hot, cold, wet, or windy it might be!

Date:

Astronomy

Nov. 27, 2011 Rise Set
Actual Time 7:07 AM CST 5:42 PM CST
Civil Twilight 6:42 AM CST 6:08 PM CST
Nautical Twilight 6:13 AM CST 6:36 PM CST
Astronomical Twilight 5:45 AM CST 7:05 PM CST
Moon 9:31 AM CST (11/27) 8:24 PM CST (11/27)
Length of Visible Light 11h 25m
Length of Day
10h 35m
Waxing Crescent, 8% of the Moon is Illuminated
Nov 27
Waxing Crescent
Dec 2
First Quarter
Dec 10
Full
Dec 17
Last Quarter
Dec 24
New

Hourly Weather History & Observations

Time (CST) Temp. Windchill Dew Point Humidity Pressure Visibility Wind Dir Wind Speed Gust Speed Precip Events Conditions
12:56 AM 56.8 °F - 19.0 °F 23% 30.35 in 5.0 mi NNW 18.4 mph 26.5 mph N/A   Haze
1:56 AM 55.9 °F - 20.1 °F 25% 30.37 in 7.0 mi NNW 20.7 mph 32.2 mph N/A   Clear
2:56 AM 54.9 °F - 21.0 °F 27% 30.38 in 7.0 mi NNW 20.7 mph 29.9 mph N/A   Clear
3:56 AM 52.9 °F - 21.0 °F 29% 30.40 in 7.0 mi NNW 16.1 mph 23.0 mph N/A   Clear
4:56 AM 52.0 °F - 22.1 °F 31% 30.41 in 7.0 mi NNW 10.4 mph - N/A   Clear
5:56 AM 50.9 °F - 21.0 °F 31% 30.42 in 8.0 mi NW 13.8 mph 20.7 mph N/A   Clear
6:56 AM 50.9 °F - 21.0 °F 31% 30.44 in 10.0 mi NNW 19.6 mph 29.9 mph N/A   Clear
7:56 AM 50.9 °F - 21.0 °F 31% 30.47 in 10.0 mi NNW 19.6 mph 27.6 mph N/A   Clear
8:56 AM 53.6 °F - 19.4 °F 26% 30.52 in 10.0 mi NNW 19.6 mph 29.9 mph N/A   Clear
9:56 AM 54.9 °F - 17.1 °F 23% 30.51 in 10.0 mi NNW 25.3 mph 33.4 mph N/A   Clear
10:56 AM 57.9 °F - 14.0 °F 18% 30.49 in 10.0 mi NW 26.5 mph 34.5 mph N/A   Clear
11:56 AM 59.9 °F - 13.1 °F 16% 30.45 in 10.0 mi NW 25.3 mph 33.4 mph N/A   Clear
12:56 PM 61.0 °F - 10.0 °F 13% 30.43 in 10.0 mi NW 20.7 mph 32.2 mph N/A   Clear
1:56 PM 61.0 °F - 7.2 °F 12% 30.38 in 10.0 mi NW 24.2 mph 35.7 mph N/A   Clear
2:56 PM 61.9 °F - 5.0 °F 10% 30.36 in 10.0 mi NNW 28.8 mph 33.4 mph N/A   Clear
3:56 PM 61.0 °F - 6.1 °F 11% 30.35 in 10.0 mi NNW 25.3 mph 28.8 mph N/A   Clear
4:56 PM 59.9 °F - 5.0 °F 11% 30.34 in 10.0 mi NNW 21.9 mph 27.6 mph N/A   Clear
5:56 PM 57.9 °F - 7.2 °F 13% 30.34 in 10.0 mi NW 12.7 mph - N/A   Clear
6:56 PM 54.9 °F - 8.1 °F 15% 30.34 in 10.0 mi NW 8.1 mph - N/A   Clear
7:56 PM 54.9 °F - 8.1 °F 15% 30.35 in 10.0 mi WNW 10.4 mph - N/A   Clear
8:56 PM 50.9 °F - 9.1 °F 19% 30.35 in 10.0 mi NNW 8.1 mph - N/A   Clear
9:56 PM 50.9 °F - 8.1 °F 18% 30.35 in 10.0 mi WNW 9.2 mph - N/A   Clear
10:56 PM 46.9 °F - 10.0 °F 22% 30.34 in 10.0 mi NW 8.1 mph - N/A   Clear
11:56 PM 45.0 °F 41.2 °F 11.1 °F 25% 30.32 in 10.0 mi WNW 6.9 mph - N/A   Clear